Dauntless Aviation
Airports Europe Czech Republic
LKPO
PRV

Prerov

Prerov, CZECH REPUBLIC

Airport Info
Suggest Updated Information for this Airport

Location

Latitude / Longitude: 49°25'32"N / 17°24'16"E
  49°25.548'N / 17°24.282'E
  49.4258 / 17.4047

Nearby radio navigation aids

CK PREROV NDB. 63.6° 2.8nm from CK to field.

Runway Information

Runway 06 /24

Dimensions: 8202 x 196 ft.
Surface: ASP
 
Runway 06
Runway 24
Latitude: 49.421419 49.430439
Longitude: 17.389275 17.420478
Elevation: 663 ft. 663 ft.
Runway true heading: 64.6 244.6
 

Instrument Procedures

  Aerodrome Chart

IAPs (Instrument Approach Procedures)

  ILS/DME Rwy 06
  NDB/DME (GPS) or PAR Rwy 06
  NDB (GPS) or PAR Rwy 06
  POLOM 3A

Departure Procedures

  Instrument Departure Chart HLV 1A - 2Z
  Instrument Departure Chart LUTIM 2A - 2Z
  Instrument Departure Chart MORKO 2Z
  Instrument Departure Chart POLOM 3A
Satellite photo at:
Airport distance calculator
From:
Weather Reports

METAR

LKKU
22.6nm SE
LKKU 241500Z 35008KT 6000 FEW016 OVC020 M03/M07 Q1026
LKMT
31.3nm NE
LKMT 241519Z 05004KT 7000 OVC017 M04/M07 Q1027 R04/410195 RMK REG QNH 1023
LKTB
33.3nm SW
LKTB 241500Z 35006KT 6000 OVC018 M04/M08 Q1026 R27/41//95 NOSIG

TAF

LKMT
31.3nm NE
TAF LKMT 241100Z 2412/2518 03006KT 4000 BR BKN020 TEMPO 2412/2422 2000 -SN BR BKN008 PROB30 TEMPO 2412/2422 1200 BR BKN004 BECMG 2422/2500 1400 -SN BR BKN006 TEMPO 2500/2510 0700 FZFG BKN004 PROB30 TEMPO 2500/2508 0400 FZFG BKN002 BECMG 2510/2512 2500 BR
LKTB
33.3nm SW
TAF LKTB 241100Z 2412/2518 32004KT 5000 BR BKN016 TEMPO 2412/2508 2500 -SN BR BKN012 PROB30 TEMPO 2420/2507 1200 BR BKN006 BECMG 2508/2510 7000 SCT030
Safelog

 

Dauntless Aviation

© 2007-2017 Dauntless Aviation, all rights reserved
Information provided via PilotNav comes from a variety of official and unofficial data sources. As errors are possible, do not use PilotNav for primary flight planning purposes. Verify any information that you receive via PilotNav with current and canonical charts and other official documents. The material in this database is subject to database copyrights held by Dauntless Aviation and may not be copied without the express permission of Dauntless Aviation - licenses for use of part of all of this data are available for purchase; enquire via the Dauntless Aviation helpdesk. A number of mechanisms and markers exist in the database to protect against and identify infringement / copyright. Automated queries against this website are stictly prohibited, and all activity is logged and analyzed.